Fuvahmulah Airport


Codes: VRMF/FVM
Name: Fuvahmulah Airport
City: Fuvahmulah Island
Country: Maldives
Elevation: 17 ft.

Photos at Fuvahmulah Airport


   Photos courtesy of SpottingLog. You can add your own sightings and photos by signing up for a free trial today.



No photos found.

Weather at Fuvahmulah Airport


Time (UTC)DescriptionTempratureWindCloud coverageVisibilityPressureHumidity
13-Jun-2024 03:00Overcast Clouds29°C4 mph, SW87%10000m1013hPa72%
13-Jun-2024 06:00Overcast Clouds29°C7 mph, SW93%10000m1013hPa71%
13-Jun-2024 09:00Overcast Clouds29°C9 mph, SW94%10000m1011hPa71%
13-Jun-2024 12:00Broken Clouds29°C7 mph, SW68%10000m1011hPa70%
13-Jun-2024 15:00Scattered Clouds29°C7 mph, W41%10000m1013hPa70%
13-Jun-2024 18:00Scattered Clouds29°C9 mph, W45%10000m1013hPa71%
13-Jun-2024 21:00Scattered Clouds29°C9 mph, SW45%10000m1011hPa72%
14-Jun-2024 00:00Broken Clouds28°C9 mph, SW57%10000m1011hPa71%
14-Jun-2024 03:00Overcast Clouds29°C11 mph, SW100%10000m1012hPa70%
14-Jun-2024 06:00Overcast Clouds29°C13 mph, SW100%10000m1011hPa71%
14-Jun-2024 09:00Overcast Clouds29°C13 mph, SW95%10000m1010hPa71%
14-Jun-2024 12:00Light Rain29°C16 mph, SW97%10000m1010hPa71%
14-Jun-2024 15:00Light Rain29°C13 mph, SW100%10000m1012hPa71%
14-Jun-2024 18:00Light Rain29°C13 mph, SW100%10000m1012hPa71%
14-Jun-2024 21:00Overcast Clouds29°C13 mph, SW100%10000m1010hPa73%
15-Jun-2024 00:00Light Rain29°C13 mph, SW100%10000m1010hPa75%
15-Jun-2024 03:00Overcast Clouds29°C11 mph, S98%10000m1012hPa75%
15-Jun-2024 06:00Overcast Clouds29°C9 mph, SW91%10000m1011hPa75%
15-Jun-2024 09:00Overcast Clouds29°C11 mph, SW100%10000m1009hPa74%
15-Jun-2024 12:00Light Rain29°C9 mph, SW99%10000m1010hPa74%
15-Jun-2024 15:00Light Rain29°C9 mph, SW100%10000m1011hPa74%
15-Jun-2024 18:00Overcast Clouds29°C9 mph, SW100%10000m1011hPa74%
15-Jun-2024 21:00Overcast Clouds29°C9 mph, SW100%10000m1010hPa74%
16-Jun-2024 00:00Light Rain28°C9 mph, SW100%10000m1010hPa74%
16-Jun-2024 03:00Light Rain29°C11 mph, SW95%10000m1012hPa72%
16-Jun-2024 06:00Light Rain29°C11 mph, S98%10000m1012hPa73%
16-Jun-2024 09:00Light Rain29°C11 mph, S100%10000m1010hPa74%
16-Jun-2024 12:00Light Rain29°C9 mph, S100%10000m1010hPa74%
16-Jun-2024 15:00Overcast Clouds29°C11 mph, S100%10000m1012hPa74%
16-Jun-2024 18:00Overcast Clouds29°C11 mph, S100%10000m1012hPa75%
16-Jun-2024 21:00Light Rain28°C9 mph, S100%10000m1010hPa76%
17-Jun-2024 00:00Overcast Clouds28°C9 mph, S100%10000m1011hPa75%
17-Jun-2024 03:00Overcast Clouds29°C9 mph, S99%10000m1012hPa74%
17-Jun-2024 06:00Overcast Clouds29°C11 mph, S99%10000m1012hPa74%
17-Jun-2024 09:00Light Rain29°C11 mph, S100%10000m1010hPa77%
17-Jun-2024 12:00Overcast Clouds29°C11 mph, S100%10000m1010hPa73%
17-Jun-2024 15:00Overcast Clouds29°C11 mph, S100%10000m1012hPa73%
17-Jun-2024 18:00Light Rain29°C11 mph, S100%10000m1012hPa76%
17-Jun-2024 21:00Light Rain29°C9 mph, S100%10000m1010hPa75%
18-Jun-2024 00:00Overcast Clouds29°C7 mph, S100%10000m1010hPa73%